STARLINK-36830, 68110

Orbit data source: Space-Track

STARLINK-36830, 68110 is a payload satellite owned by SpaceX/Seattle (US) in SSO that was launched on Sun, 08 Mar 2026 UTC via an FALCON 9 launch vehicle from the Air Force Western Test Range (AFWTR). Payload-class satellites include a variety of spacecraft equipped with specific instruments for various scientific and technological missions. These include communications satellites like Starlink; space stations such as the ISS; scientific satellites like the Hubble; Earth observation satellites from companies like Planet Labs, Umbra, and HawkEye 360; GPS; miniature CubeSats for education and research; and military/defense satellites.

Not visible in the next 10 days
Identifier
68110, 2026-044K
Orbit
SSO
Country
Flag of USUS
Related business
Manufacturer
SpaceX/Seattle
Mission
Operational spacecraft
Bus & Motor
STARLINK V2MO, Unknown motor
Mass
575 kg wet, ~530 kg dry
Launch date (UTC)
2026-03-08 (1 week ago)
Launch vehicle
FALCON 9
Launch site
Air Force Western Test Range (AFWTR)
Object type
Payload
Rocket body
Debris
Shape & HBR
Unknown
Radar Cross Section
RCS unknown

Expand to show TLE details & history
Last TLE update: 9 hours ago

TLE from 9 hours ago
0 STARLINK-36830
1 68110U 26044K   26073.50002315 -.01838852  10452-2 -31936-2 0  9991
2 68110  97.2819  33.7342 0001622  99.7566  56.0327 16.02393995  2179
Epoch: 2026-03-14T12:00Z
TLE epoch observation values (Epoch: 2026-03-14T12:00:02.000Z)
Latitude
24.01397°
Longitude
-135.14942°
Altitude
270.341 km
Speed
7.748 km/s
True Right ascension
14h 27m 55s
True Declination
23° 52' 37"
Sunlit
Object was in full shadow at epoch
Visualization orbit readout
Latitude
Unknown
Longitude
Unknown
Altitude
Unknown
Speed
Unknown
Apparent Right ascension
Unknown
Apparent Declination
Unknown
Sunlit
N/A
Visualization observer readout
Local Sidereal Time
01:30:10
Azimuth
Unknown
Elevation
Unknown
Doppler factor
Unknown
Orbital elements
Apogee altitude
265.72 km
Perigee altitude
263.565 km
Semi-major axis
6,642.78 km
Eccentricity
0.00016
Inclination
97.2819°
RAAN
33.7342°
Arg. of periapsis
99.7566°
True anomaly
56.04812°
Mean anomaly
56.0327°
Eccentric anomaly
56.04041°
Mean motion
4.00884 °/min
Orbital period
89.8 mins
BSTAR
-0.0031936
Loading maneuver chart data...
Computing Atmospheric mass density...
Loading historical data...
Loading historical data...
Loading historical data...
Loading historical data...
Loading historical data...
Loading historical data...
Loading historical data...

Documentation

Showing up to 5 results
|